Location: Casteau
(50.5142°N, 4.0161°E)
Time: 16:38:08
(UTC+00:00)

Transit 2A Rocket - Visible Passes

Search period start: 28 July 2021 00:00
Search period end: 07 August 2021 00:00
Orbit: 589 x 913 km, 66.7° (Epoch: 28 July)

Date Brightness Start Highest point End Pass type
(mag) Time Alt. Az. Time Alt. Az. Time Alt. Az.
28 Jul 6.0 00:21:00 10° NW 00:25:50 33° WSW 00:26:47 31° SW visible
28 Jul 7.4 20:13:22 10° NNW 20:16:38 16° NNE 20:20:02 10° ENE visible
28 Jul 6.1 21:55:35 10° NNW 22:00:36 40° NE 22:05:00 15° ESE visible
28 Jul 5.5 23:38:05 10° NW 23:43:22 50° WSW 23:44:52 40° SSW visible
29 Jul 6.6 21:13:02 10° NNW 21:17:41 30° NE 21:22:40 10° E visible
29 Jul 5.1 22:55:21 10° NW 23:00:47 77° SW 23:03:00 39° SSE visible
30 Jul 7.0 00:39:26 10° WNW 00:42:41 16° WSW 00:42:52 16° WSW visible
30 Jul 6.9 20:30:30 10° NNW 20:34:41 23° NNE 20:39:07 10° E visible
30 Jul 5.2 22:12:42 10° NW 22:18:07 73° NE 22:21:11 29° SE visible
30 Jul 6.4 23:55:54 10° WNW 00:00:21 25° WSW 00:01:04 24° WSW visible
31 Jul 5.7 21:30:07 10° NNW 21:35:21 51° NE 21:39:25 18° ESE visible
31 Jul 5.9 23:12:50 10° NW 23:17:55 38° WSW 23:19:18 33° SSW visible
01 Aug 6.2 20:47:34 10° NNW 20:52:30 36° NE 20:57:41 11° ESE visible
01 Aug 5.4 22:30:01 10° NW 22:35:24 59° WSW 22:37:34 36° S visible
02 Aug 7.3 00:15:21 10° W 00:17:03 11° WSW 00:17:27 11° WSW visible
02 Aug 6.6 20:05:02 10° NNW 20:09:34 27° NNE 20:14:24 10° E visible
02 Aug 5.1 21:47:18 10° NW 21:52:47 88° SW 21:55:54 29° SE visible
02 Aug 6.9 23:30:59 10° WNW 23:34:48 19° WSW 23:35:46 18° WSW visible
03 Aug 5.4 21:04:41 10° NNW 21:10:05 64° NE 21:14:15 19° SE visible
03 Aug 6.4 22:47:41 10° NW 22:52:26 29° WSW 22:54:08 25° SW visible
04 Aug 5.9 20:22:06 10° NNW 20:27:18 45° NE 20:32:39 11° ESE visible
04 Aug 5.8 22:04:43 10° NW 22:09:59 45° WSW 22:12:33 28° S visible
05 Aug 5.3 21:21:56 10° NW 21:27:25 69° WSW 21:31:00 24° SSE visible
05 Aug 7.3 23:06:25 10° WNW 23:09:12 14° WSW 23:10:53 12° WSW visible
06 Aug 5.2 20:39:16 10° NW 20:44:47 82° NE 20:49:30 17° SE visible
06 Aug 6.9 22:22:39 10° WNW 22:26:54 22° WSW 22:29:23 17° SW visible
